Regional Weather Roundup
Issued by NWS Charleston, SC

Current Version | Previous Version | Graphics & Text | Print | Product List | Glossary On
Versions: 1 2 3 4 5 6 7 8 9 10 11 12 13 14 15 16 17 18 19 20 21 22 23 24 25 26 27 28 29 30 31 32 33 34 35 36 37 38 39 40 41 42 43 44 45 46 47 48 49 50
000
ASUS42 KCHS 171227
RWRCHS

REGIONAL WEATHER ROUNDUP
NATIONAL WEATHER SERVICE CHARLESTON SC
700 AM EST TUE JAN 17 2017

NOTE: "FAIR" INDICATES FEW OR NO CLOUDS BELOW 12,000 FEET WITH NO
SIGNIFICANT WEATHER AND/OR OBSTRUCTIONS TO VISIBILITY.

NOT ALL STATIONS ARE QUALITY CONTROLLED. USE DATA WITH CAUTION...
ESPECIALLY DEWPOINT OBSERVATIONS.

SCZ027-030-031-034>040-042>050-171300-
...SOUTHEAST SOUTH CAROLINA...

CITY           SKY/WX    TMP DP  RH WIND       PRES   REMARKS
N CHARLESTON   FOG       54  53  97 CALM      30.26R VSB 1/2
6HR MIN TEMP:  51; 6HR MAX TEMP:  55;

WATERFRONT PRK   N/A     55  55 100 CALM      30.25R
MOUNT PLEASANT CLOUDY    54  54 100 CALM      30.26S FOG
JOHNS ISLAND   PTSUNNY   55  55 100 CALM      30.26S FOG
PINOPOLIS      NOT AVBL
MONCKS CORNER  FOG       52  50  93 CALM      30.26S VSB 1/4
SUMMERVILLE    FOG      N/A N/A N/A CALM      30.27S VSB 1/2
BEAUFORT MCAS  FOG       56  55  97 CALM      30.26S VSB 1/4
6HR MIN TEMP:  56; 6HR MAX TEMP:  58;

BEAUFORT ARPT  FOG       55  55 100 CALM      30.26R VSB 3/4
HILTON HEAD IS PTCLDY    57  57 100 CALM      30.26R FOG
WALTERBORO     FOG       59 N/A N/A CALM      30.27S VSB 1/4
ALLENDALE      CLOUDY    59  59 100 CALM      30.25S FOG

...SOUTHERN MIDLANDS AND PEE DEE...

CITY           SKY/WX    TMP DP  RH WIND       PRES   REMARKS
GEORGETOWN     FOG       52  50  93 CALM      30.27S VSB 1/2
KINGSTREE      FOG       52  50  93 CALM      30.27R VSB 1/4
ORANGEBURG     FOG       56  56 100 CALM      30.26R VSB 1/2
6HR MIN TEMP:  56; 6HR MAX TEMP:  57;

BARNWELL       CLOUDY    61  61 100 CALM      30.26R
AIKEN          CLOUDY    54  54 100 S5        30.29R FOG
MANNING        FOG       52  52 100 CALM      30.27R VSB 1/4
COLUMBIA       FOG       54  53  97 E5        30.25R VSB 1/2
6HR MIN TEMP:  54; 6HR MAX TEMP:  54;

SUMTER         FOG       54  54 100 CALM      30.25R VSB 3/4
6HR MIN TEMP:  52; 6HR MAX TEMP:  53;

FLORENCE       FOG       52  52 100 CALM      30.27R VSB 1/4
6HR MIN TEMP:  52; 6HR MAX TEMP:  53;

MYRTLE BEACH   CLOUDY    70  48  46 N6        30.26F
N MYRTLE BEACH CLOUDY    50  49  96 N3        30.26R
6HR MIN TEMP:  47; 6HR MAX TEMP:  51;


$$

GAZ063-065-086>088-099>101-113>116-118-119-134>141-150-171300-
...SOUTHEAST GEORGIA...

CITY           SKY/WX    TMP DP  RH WIND       PRES   REMARKS
SAVANNAH ARPT  FOG       57  56  96 W3        30.27R VSB 1/4
6HR MIN TEMP:  57; 6HR MAX TEMP:  58;

HUNTER AAF     FOG       57  57 100 CALM      30.23S VSB 1/4
6HR MIN TEMP:  57; 6HR MAX TEMP:  58;

FORT STEWART   FOG       57  56  99 CALM      30.24R VSB 1/4
6HR MIN TEMP:  57; 6HR MAX TEMP:  57;

STATESBORO     FOG       58  32  37 CALM      30.26S VSB<1/4
SYLVANIA       FOG      N/A N/A N/A CALM      30.27R VSB 1/2
CLAXTON        FOG      N/A N/A N/A CALM      30.26S VSB 1/4

...CSRA...CENTRAL AND FAR SOUTHEAST GEORGIA...

CITY           SKY/WX    TMP DP  RH WIND       PRES   REMARKS
THOMSON        CLOUDY    60  59  98 SW3       30.29R
AUGUSTA-BUSH   CLOUDY    60  57  89 S5        30.25R
6HR MIN TEMP:  59; 6HR MAX TEMP:  60;

AUGUSTA-DANIEL CLOUDY    60  56  86 S6        30.25R
SWAINSBORO     CLOUDY    59  59 100 CALM      30.26S FOG
VIDALIA        FOG       59  59 100 CALM      30.26R VSB 1/2
EASTMAN        FOG       55  54  97 CALM      30.27R VSB 1/4
HAZLEHURST     FOG       59  59 100 CALM      30.24S VSB 1/2
ALMA           FOG       58  58 100 S3        30.25R VSB 1/2
6HR MIN TEMP:  58; 6HR MAX TEMP:  59;

WAYCROSS       FOG       60  60 100 CALM      30.26R VSB 1/4
JESUP          FOG       59  55  88 CALM      30.26S VSB<1/4
BAXLEY         FOG       59  59 100 CALM      30.25S VSB 1/2
BRUNSWICK      FOG       59  59 100 CALM      30.27R VSB 1/4
SAINT SIMONS   FOG       55  55 100 CALM      30.25R VSB 1/4
6HR MIN TEMP:  55; 6HR MAX TEMP:  60;


$$

SCZ027-028-034-036>038-045-046-048>050-GAZ119-141-171300-
...LAKE AND SUPPLEMENTAL COASTAL OBSERVATIONS...

STATION/POSITION TIME  TEMP    WIND        PRES    WAVE   SWELL
                       AIR SEA DIR/SP/G            HT/PER HT/PER/DIR
                 (UTC) (F)     (DEG/KT/KT) (MB)    (FT/S) (FT/S/D)
WINYAH BAY       1130   52     320/  2     1024.0S
LAKE MURRAY      1130   53      CALM  /  1 1023.7S
ACE BASIN NERRS  1145   56        CALM     1025.0R
FORT PULASKI     1200   56 55   50/  2/  2 1024.7
SAPELO ISLAND    1200   56        CALM     1024.0

$$

ANZ835-935-AMZ111-154-330-350-352-354-370-450-454-472-171300-
...C-MAN AND BUOY OBSERVATIONS...

STATION/POSITION TIME  TEMP    WIND        PRES    WAVE   SWELL
                       AIR SEA DIR/SP/G            HT/PER HT/PER/DIR
                 (UTC) (F)     (DEG/KT/KT) (MB)    (FT/S) (FT/S/D)
BUOY 41004       1150   70 70  170/  4/  4 1023.8R   3/ 9   3/120/ 9
BUOY 41008       1150   58 58   10/  6/  6 1024.0R   3/ 6   3/ 80/ 6
FOLLY BEACH CMAN 1200   55     300/  5/  6 1024.9R
CAPERS NEARSHORE 1208   53 53   10/  4/  6 1024.4R
FRIPP NEARSHORE  1208   56 56   10/  4/  6 1024.3R


STATION/POSITION TIME  TEMP    WIND        PRES    WAVE   SWELL
                       AIR SEA DIR/SP/G            HT/PER HT/PER/DIR
                 (UTC) (F)     (DEG/KT/KT) (MB)    (FT/S) (FT/S/D)
5E ST. MARYS GA  1200      60                N/A     3/11   2/100/11
FRYING PAN BUOY  1210   71 71  170/  8/ 10 1024.0
BUOY 41025       1150   56 72   10/ 10/ 12 1024.4R   2/ 8   2/110/ 8
CAPE LOOKOUT NC  1200   49      10/  5/  5 1024.0S
BUOY 41002       1150   71 72  190/ 14/ 16 1025.4R   3/ 8   3/ 30/ 8
BUOY 41010       NOT AVBL
ST AUGUSTINE FL  1200   62 63  220/  2/  2 1024.9R


$$



USA.gov is the U.S. government's official web portal to all federal, state and local government web resources and services.